FIN1808 LICC-EFHK

Flight info

Callsign FIN1808
Flight time N/A
Altitude 36000
Route BUDIN DCT AIOSA/N0450F370 DCT SOMUN DCT SMI DCT PARAK DCT KEKED DCT SUMAM M857 BULEP DCT BOKSU DCT INBOV DCT GUNTA M857 SOKVA DCT ANAMA DCT KEMET Q11 INTOR
Aircraft A320/M-SDE1E2E3FGIJ1M1RWXYZ/LB1

Departure

Time N/A
Airport Catania-Fontanarossa Airport (LICC)

Arrival

Time 2026-04-22 13:13
Airport Helsinki Vantaa Airport (EFHK)
Time Latitude Longitude Altitude Speed Heading
2026-04-22 11:50 52.87168 22.45886 37067 ft 412 kts 17°
2026-04-22 11:50 52.89915 22.47022 37070 ft 411 kts 17°
2026-04-22 11:50 52.95482 22.49299 37066 ft 411 kts 17°
2026-04-22 11:51 53.01043 22.51556 37065 ft 411 kts 17°
2026-04-22 11:51 53.06610 22.53820 37067 ft 411 kts 17°
2026-04-22 11:52 53.12139 22.56077 37055 ft 411 kts 17°
2026-04-22 11:52 53.17689 22.58344 37057 ft 410 kts 17°
2026-04-22 11:53 53.23237 22.60617 37068 ft 410 kts 17°
2026-04-22 11:53 53.28782 22.62900 37074 ft 410 kts 17°
2026-04-22 11:54 53.34292 22.65167 37042 ft 410 kts 17°
2026-04-22 11:54 53.39840 22.67458 37055 ft 409 kts 17°
2026-04-22 11:55 53.45374 22.69745 37065 ft 409 kts 17°
2026-04-22 11:55 53.50856 22.72027 37067 ft 408 kts 17°
2026-04-22 11:56 53.56380 22.74325 37069 ft 408 kts 17°
2026-04-22 11:56 53.61915 22.76637 37067 ft 408 kts 17°
2026-04-22 11:57 53.67414 22.78949 37073 ft 407 kts 17°
2026-04-22 11:57 53.72891 22.81248 37072 ft 407 kts 17°
2026-04-22 11:58 53.78368 22.83541 37069 ft 407 kts 17°
2026-04-22 11:58 53.83871 22.85868 37066 ft 407 kts 17°
2026-04-22 11:59 53.89368 22.88203 37064 ft 407 kts 17°
2026-04-22 11:59 53.94823 22.90523 37061 ft 406 kts 17°
2026-04-22 12:00 54.00306 22.92857 37060 ft 406 kts 17°
2026-04-22 12:00 54.05788 22.95200 37061 ft 406 kts 17°
2026-04-22 12:01 54.11273 22.97542 37053 ft 406 kts 17°
2026-04-22 12:01 54.16759 22.99888 37064 ft 405 kts 17°
2026-04-22 12:02 54.22198 23.02228 37064 ft 405 kts 17°
2026-04-22 12:02 54.27663 23.04590 37065 ft 404 kts 17°
2026-04-22 12:03 54.33157 23.06838 37060 ft 405 kts 15°
2026-04-22 12:03 54.38708 23.08529 37056 ft 405 kts 13°
2026-04-22 12:04 54.44252 23.10046 37058 ft 405 kts 13°
2026-04-22 12:04 54.49820 23.11653 37060 ft 405 kts 13°
2026-04-22 12:05 54.55364 23.13349 37047 ft 404 kts 14°
2026-04-22 12:05 54.60866 23.15057 37040 ft 404 kts 14°
2026-04-22 12:06 54.66393 23.16755 37056 ft 403 kts 14°
2026-04-22 12:06 54.71914 23.18456 37050 ft 402 kts 14°
2026-04-22 12:07 54.77427 23.20148 37050 ft 401 kts 14°
2026-04-22 12:07 54.81996 23.21554 37042 ft 401 kts 14°
2026-04-22 12:08 54.88391 23.23539 37036 ft 400 kts 14°
2026-04-22 12:08 54.92957 23.24963 37041 ft 400 kts 14°
2026-04-22 12:09 54.98444 23.26681 37050 ft 399 kts 14°
2026-04-22 12:09 55.03880 23.28380 37044 ft 398 kts 14°
2026-04-22 12:10 55.09352 23.30094 37036 ft 398 kts 14°
2026-04-22 12:10 55.14775 23.31800 37024 ft 397 kts 14°
2026-04-22 12:11 55.20219 23.33510 37033 ft 397 kts 14°
2026-04-22 12:11 55.25659 23.35222 37027 ft 396 kts 14°
2026-04-22 12:12 55.31062 23.36933 37034 ft 396 kts 14°
2026-04-22 12:12 55.36491 23.38671 37028 ft 396 kts 14°
2026-04-22 12:13 55.41917 23.40407 37027 ft 395 kts 14°
2026-04-22 12:13 55.47301 23.42184 37032 ft 394 kts 15°
2026-04-22 12:14 55.52671 23.44151 37013 ft 393 kts 16°
2026-04-22 12:14 55.57992 23.46134 37014 ft 392 kts 16°
2026-04-22 12:15 55.63347 23.48104 37022 ft 392 kts 16°
2026-04-22 12:15 55.68658 23.50034 37008 ft 390 kts 15°
2026-04-22 12:16 55.73987 23.51983 37023 ft 389 kts 16°
2026-04-22 12:16 55.79261 23.53925 37012 ft 388 kts 16°
2026-04-22 12:17 55.84546 23.55874 37010 ft 387 kts 16°
2026-04-22 12:17 55.89836 23.57829 37008 ft 387 kts 16°
2026-04-22 12:18 55.95080 23.59770 37008 ft 386 kts 15°
2026-04-22 12:18 56.00350 23.61716 36998 ft 386 kts 15°
2026-04-22 12:19 56.05630 23.63573 37009 ft 386 kts 15°
2026-04-22 12:19 56.10880 23.65346 36997 ft 386 kts 14°
2026-04-22 12:20 56.16163 23.67139 36996 ft 385 kts 15°
2026-04-22 12:20 56.21405 23.68949 37000 ft 385 kts 14°
2026-04-22 12:21 56.26663 23.70776 37002 ft 384 kts 14°
2026-04-22 12:21 56.31911 23.72593 36998 ft 383 kts 14°
2026-04-22 12:22 56.37149 23.74411 36995 ft 382 kts 14°
2026-04-22 12:22 56.42342 23.76229 36988 ft 382 kts 15°
2026-04-22 12:23 56.47577 23.78069 36985 ft 382 kts 14°
2026-04-22 12:23 56.52769 23.79891 36985 ft 382 kts 14°
2026-04-22 12:24 56.57987 23.81722 36967 ft 381 kts 15°
2026-04-22 12:24 56.63204 23.83565 36967 ft 381 kts 15°
2026-04-22 12:25 56.68409 23.85413 36975 ft 380 kts 15°
2026-04-22 12:25 56.73580 23.87237 36975 ft 380 kts 14°
2026-04-22 12:26 56.78771 23.89076 36980 ft 379 kts 14°
2026-04-22 12:26 56.83957 23.90926 36981 ft 378 kts 14°
2026-04-22 12:27 56.89096 23.92770 36981 ft 378 kts 14°
2026-04-22 12:27 56.94270 23.94621 36982 ft 378 kts 14°
2026-04-22 12:28 56.99449 23.96478 36985 ft 378 kts 14°
2026-04-22 12:28 57.04600 23.98341 36989 ft 378 kts 14°
2026-04-22 12:29 57.09773 24.00216 36992 ft 378 kts 14°
2026-04-22 12:29 57.14906 24.02076 36992 ft 377 kts 14°
2026-04-22 12:30 57.22637 24.04897 36991 ft 377 kts 14°
2026-04-22 12:31 57.27764 24.06752 36990 ft 377 kts 14°
2026-04-22 12:31 57.32915 24.08638 36994 ft 376 kts 14°
2026-04-22 12:32 57.38044 24.10528 36991 ft 375 kts 14°
2026-04-22 12:32 57.45685 24.13361 36991 ft 374 kts 14°
2026-04-22 12:33 57.50792 24.15260 36981 ft 373 kts 14°
2026-04-22 12:33 57.55884 24.17148 36976 ft 373 kts 13°
2026-04-22 12:34 57.60960 24.19040 36977 ft 371 kts 13°
2026-04-22 12:34 57.65995 24.20915 36970 ft 370 kts 13°
2026-04-22 12:35 57.71056 24.22802 36965 ft 370 kts 13°
2026-04-22 12:35 57.76104 24.24707 36958 ft 369 kts 13°
2026-04-22 12:36 57.81118 24.26591 36956 ft 369 kts 13°
2026-04-22 12:36 57.86162 24.28496 36956 ft 369 kts 13°
2026-04-22 12:37 57.91201 24.30402 36949 ft 369 kts 13°
2026-04-22 12:37 57.96227 24.32156 36944 ft 369 kts 12°
2026-04-22 12:38 58.01290 24.33849 36944 ft 369 kts 12°
2026-04-22 12:38 58.06345 24.35548 36935 ft 368 kts 12°
2026-04-22 12:39 58.13888 24.38152 36940 ft 368 kts 12°
2026-04-22 12:40 58.18932 24.39907 36928 ft 368 kts 12°
2026-04-22 12:40 58.23973 24.41674 36934 ft 368 kts 12°
2026-04-22 12:41 58.28983 24.43414 36923 ft 368 kts 12°
2026-04-22 12:41 58.34024 24.45168 36919 ft 368 kts 12°
2026-04-22 12:42 58.39030 24.46924 36932 ft 368 kts 12°
2026-04-22 12:42 58.44057 24.48696 36944 ft 367 kts 11°
2026-04-22 12:43 58.49087 24.50466 36943 ft 367 kts 11°
2026-04-22 12:43 58.54107 24.52240 36936 ft 366 kts 11°
2026-04-22 12:44 58.59124 24.54022 36924 ft 366 kts 11°
2026-04-22 12:44 58.64109 24.55795 36882 ft 366 kts 11°
2026-04-22 12:45 58.69124 24.57586 36895 ft 366 kts 11°
2026-04-22 12:45 58.74137 24.59380 36886 ft 366 kts 11°
2026-04-22 12:46 58.79152 24.61170 36880 ft 366 kts 11°
2026-04-22 12:46 58.84137 24.62962 36884 ft 366 kts 11°
2026-04-22 12:47 58.89154 24.64777 36875 ft 366 kts 11°
2026-04-22 12:47 58.91672 24.65686 36376 ft 369 kts 11°
2026-04-22 12:47 58.94194 24.66597 35666 ft 369 kts 11°
2026-04-22 12:47 58.96694 24.67500 34874 ft 370 kts 11°
2026-04-22 12:48 58.99221 24.68416 34286 ft 367 kts 11°
2026-04-22 12:48 59.01716 24.69327 33743 ft 362 kts 10°
2026-04-22 12:48 59.04185 24.70229 33168 ft 357 kts 10°
2026-04-22 12:48 59.06614 24.71118 32645 ft 352 kts 10°
2026-04-22 12:49 59.09011 24.71994 32110 ft 347 kts 10°
2026-04-22 12:49 59.11347 24.72844 31598 ft 343 kts 10°
2026-04-22 12:49 59.13682 24.73694 31091 ft 340 kts 10°
2026-04-22 12:49 59.15995 24.74542 30597 ft 337 kts 10°
2026-04-22 12:50 59.18286 24.75385 30103 ft 334 kts
2026-04-22 12:50 59.20565 24.76224 29566 ft 331 kts
2026-04-22 12:50 59.22817 24.77052 29082 ft 326 kts
2026-04-22 12:50 59.25040 24.77870 28615 ft 322 kts
2026-04-22 12:51 59.27230 24.78674 28170 ft 318 kts
2026-04-22 12:51 59.29366 24.79459 27750 ft 314 kts
2026-04-22 12:51 59.31506 24.80249 27326 ft 311 kts
2026-04-22 12:51 59.33619 24.81036 26909 ft 307 kts
2026-04-22 12:52 59.35711 24.81819 26507 ft 303 kts
2026-04-22 12:52 59.37775 24.82591 26109 ft 299 kts
2026-04-22 12:52 59.39814 24.83348 25706 ft 296 kts
2026-04-22 12:52 59.41799 24.84392 25311 ft 295 kts 17°
2026-04-22 12:53 59.43690 24.85939 24907 ft 294 kts 19°
2026-04-22 12:53 59.45550 24.87483 24506 ft 292 kts 19°
2026-04-22 12:53 59.47422 24.89038 24091 ft 291 kts 18°
2026-04-22 12:53 59.49289 24.90590 23669 ft 290 kts 18°
2026-04-22 12:54 59.50521 24.91615 23383 ft 290 kts 18°
2026-04-22 12:54 59.53000 24.93677 22800 ft 288 kts 18°
2026-04-22 12:54 59.54820 24.95190 22369 ft 286 kts 17°
2026-04-22 12:54 59.56654 24.96716 21940 ft 284 kts 17°
2026-04-22 12:55 59.57858 24.97721 21672 ft 282 kts 17°
2026-04-22 12:55 59.60273 24.99743 21130 ft 280 kts 16°
2026-04-22 12:55 59.61457 25.00733 20866 ft 279 kts 16°
2026-04-22 12:55 59.63823 25.02707 20339 ft 278 kts 16°
2026-04-22 12:56 59.65601 25.04196 19938 ft 277 kts 16°
2026-04-22 12:56 59.67378 25.05687 19548 ft 277 kts 16°
2026-04-22 12:56 59.68577 25.06691 19285 ft 277 kts 16°
2026-04-22 12:56 59.70352 25.08176 18897 ft 277 kts 16°
2026-04-22 12:57 59.72125 25.09663 18273 ft 285 kts 16°
2026-04-22 12:57 59.73987 25.11223 17462 ft 296 kts 17°
2026-04-22 12:57 59.75931 25.12855 16647 ft 307 kts 17°
2026-04-22 12:57 59.77899 25.14518 16173 ft 306 kts 17°
2026-04-22 12:58 59.79851 25.16179 15767 ft 304 kts 17°
2026-04-22 12:58 59.81794 25.17833 15367 ft 303 kts 18°
2026-04-22 12:58 59.83709 25.19464 14953 ft 302 kts 18°
2026-04-22 12:58 59.85645 25.21118 14548 ft 301 kts 18°
2026-04-22 12:59 59.87569 25.22759 14136 ft 299 kts 19°
2026-04-22 12:59 59.89473 25.24366 13910 ft 291 kts 16°
2026-04-22 12:59 59.91390 25.25314 13714 ft 279 kts
2026-04-22 12:59 59.93303 25.25591 13291 ft 279 kts
2026-04-22 13:00 59.95229 25.25825 12866 ft 276 kts
2026-04-22 13:00 59.97139 25.26052 12360 ft 274 kts
2026-04-22 13:00 59.99025 25.26274 12120 ft 267 kts
2026-04-22 13:00 60.00860 25.26495 11695 ft 261 kts
2026-04-22 13:01 60.02678 25.26716 11169 ft 262 kts
2026-04-22 13:01 60.04498 25.26939 10840 ft 260 kts
2026-04-22 13:01 60.06284 25.27160 10536 ft 259 kts
2026-04-22 13:01 60.08082 25.27387 10150 ft 259 kts
2026-04-22 13:02 60.09882 25.27616 9778 ft 259 kts 360°
2026-04-22 13:02 60.11683 25.27842 9344 ft 259 kts
2026-04-22 13:02 60.13468 25.28067 8969 ft 256 kts
2026-04-22 13:02 60.15246 25.28293 8542 ft 255 kts
2026-04-22 13:03 60.17015 25.28517 8143 ft 253 kts
2026-04-22 13:03 60.18742 25.28735 7761 ft 250 kts
2026-04-22 13:03 60.20468 25.28952 7378 ft 247 kts
2026-04-22 13:03 60.22174 25.29166 6998 ft 244 kts
2026-04-22 13:04 60.23862 25.29379 6623 ft 242 kts
2026-04-22 13:04 60.25539 25.29590 6253 ft 240 kts
2026-04-22 13:04 60.27197 25.29798 5861 ft 238 kts
2026-04-22 13:04 60.28843 25.30003 5491 ft 235 kts
2026-04-22 13:05 60.30465 25.30211 5127 ft 231 kts
2026-04-22 13:05 60.32030 25.30417 4941 ft 221 kts
2026-04-22 13:05 60.33516 25.30613 4872 ft 207 kts
2026-04-22 13:05 60.34914 25.30792 4791 ft 195 kts
2026-04-22 13:06 60.36244 25.30960 4715 ft 186 kts
2026-04-22 13:06 60.37514 25.31119 4522 ft 182 kts
2026-04-22 13:06 60.38795 25.31038 4024 ft 192 kts 354°
2026-04-22 13:06 60.40149 25.30758 3478 ft 198 kts 351°
2026-04-22 13:07 60.41528 25.30446 2954 ft 201 kts 349°
2026-04-22 13:07 60.42930 25.30124 2391 ft 204 kts 349°
2026-04-22 13:07 60.44340 25.29747 1974 ft 199 kts 342°
2026-04-22 13:07 60.45362 25.28295 1985 ft 176 kts 299°
2026-04-22 13:08 60.45502 25.25929 2028 ft 175 kts 258°
2026-04-22 13:08 60.44767 25.23962 2009 ft 174 kts 231°
2026-04-22 13:08 60.43979 25.22218 1999 ft 164 kts 238°
2026-04-22 13:08 60.43230 25.20495 2003 ft 162 kts 237°
2026-04-22 13:09 60.42474 25.18787 1988 ft 163 kts 236°
2026-04-22 13:09 60.41714 25.17087 1992 ft 163 kts 236°
2026-04-22 13:09 60.40958 25.15399 2004 ft 164 kts 236°
2026-04-22 13:09 60.40191 25.13694 2008 ft 164 kts 235°
2026-04-22 13:10 60.39426 25.11994 1965 ft 163 kts 235°
2026-04-22 13:10 60.38662 25.10297 1823 ft 162 kts 235°
2026-04-22 13:10 60.37933 25.08688 1626 ft 150 kts 237°
2026-04-22 13:10 60.37242 25.07152 1433 ft 147 kts 237°
2026-04-22 13:11 60.36566 25.05604 1234 ft 147 kts 237°
2026-04-22 13:11 60.35890 25.04110 1018 ft 143 kts 234°
2026-04-22 13:11 60.35215 25.02655 812 ft 141 kts 233°
2026-04-22 13:11 60.34558 25.01211 617 ft 138 kts 234°
2026-04-22 13:12 60.33910 24.99782 440 ft 138 kts 234°
2026-04-22 13:12 60.33279 24.98373 260 ft 136 kts 235°
2026-04-22 13:12 60.32665 24.96991 172 ft 120 kts 231°
2026-04-22 13:12 60.32213 24.96001 176 ft 69 kts 226°
2026-04-22 13:13 60.31976 24.95667 172 ft 20 kts 201°
2026-04-22 13:13 60.31867 24.95591 170 ft 7 kts 193°
2026-04-22 13:13 60.31822 24.95626 170 ft 7 kts 137°
2026-04-22 13:13 60.31828 24.95740 169 ft 11 kts 48°
2026-04-22 13:14 60.31890 24.95869 168 ft 16 kts 46°
2026-04-22 13:14 60.31923 24.96037 168 ft 9 kts 133°
2026-04-22 13:14 60.31863 24.96159 164 ft 15 kts 128°
2026-04-22 13:14 60.31866 24.96344 163 ft 13 kts 58°
2026-04-22 13:15 60.31927 24.96483 163 ft 11 kts 47°
2026-04-22 13:15 60.31940 24.96554 163 ft 6 kts 117°
2026-04-22 13:15 60.31917 24.96602 163 ft 5 kts 136°
2026-04-22 13:15 60.31909 24.96616 163 ft 0 kts 137°
2026-04-22 13:16 60.31906 24.96622 163 ft 0 kts 137°